Theta_e
289 288 288 287 287 288 286 287 287 286 286 286 287 286 286 287 288 287 288 288 289 287 288 288 287 287 290 288 288 287 288 287 288 288 287 289 287 287 288 286 285 285
289 290 290 289 288 288 286 287 287 286 286 286 286 286 286 286 287 287 287 287 287 288 288 288 287 288 287 287 287 287 287 286 286 289 287 286 286 286 286 286 286 286
289 288 288 287 287 287 288 287 287 286 286 286 286 286 288 287 287 287 287 287 287 286 287 288 287 287 288 287 287 287 286 286 286 287 287 286 286 285 286 285 286 286
289 289 289 288 288 288 288 287 287 287 286 287 286 287 287 289 287 286 287 289 285 286 287 287 287 286 286 286 286 286 285 286 286 287 285 285 286 285 285 285 285 285
290 290 289 289 289 289 288 288 287 287 286 287 287 287 288 287 286 286 286 286 286 285 286 286 286 286 286 285 286 285 286 285 286 285 284 284 284 285 285 285 284 284
291 290 290 290 289 289 288 288 288 288 287 287 287 287 287 287 286 286 286 286 286 286 286 286 286 286 286 285 285 285 285 286 284 285 285 284 284 285 286 285 284 283
291 290 290 290 289 289 289 288 288 288 288 288 286 287 286 286 286 286 286 287 286 287 286 286 286 286 286 286 285 285 285 285 284 285 285 285 285 284 285 285 284 284
291 291 291 290 289 289 289 289 288 288 288 286 287 287 287 287 286 287 287 286 286 286 286 286 286 286 286 286 286 285 285 287 286 285 284 284 284 284 284 286 285 284
292 291 291 290 289 289 289 289 289 288 288 287 287 287 287 287 287 286 287 286 286 286 286 286 286 286 286 286 286 285 285 285 287 285 285 284 284 284 285 285 284 285
291 292 291 290 289 289 289 289 289 289 288 288 288 287 287 287 287 287 286 286 286 286 285 285 286 285 285 286 286 286 285 285 286 286 285 285 285 285 285 285 285 284
291 291 290 290 290 290 289 290 289 289 289 288 288 288 288 287 287 287 286 286 286 286 286 285 286 285 285 285 286 286 285 285 285 286 286 286 285 285 287 285 285 285
291 291 291 290 290 290 290 290 290 289 289 289 289 288 288 288 287 287 287 286 286 286 286 286 286 285 285 285 285 285 285 285 285 285 286 286 286 286 286 286 286 286
291 291 292 291 291 291 291 290 290 290 289 289 289 289 288 288 288 287 287 287 287 286 286 286 286 286 286 285 285 285 285 285 285 285 285 285 286 286 287 286 286 287
291 291 291 292 292 291 291 290 290 290 290 290 289 288 288 288 288 288 288 287 287 287 287 287 286 286 286 285 285 285 285 285 285 285 284 284 285 286 286 287 287 287
291 291 291 291 291 292 291 291 291 290 290 289 289 289 289 289 289 288 288 287 287 287 287 287 287 287 287 286 285 285 285 285 285 285 285 284 284 285 286 286 286 287
290 290 291 291 291 291 291 291 290 290 290 289 289 289 289 289 288 288 288 288 287 287 287 288 288 288 288 289 289 287 286 286 286 285 285 285 285 285 285 286 286 286
289 290 290 290 291 291 291 290 291 290 289 289 289 288 288 288 287 287 287 288 288 287 287 287 288 289 289 290 291 291 288 286 285 285 285 285 285 284 284 285 286 286
289 289 288 289 289 290 290 290 289 288 288 288 288 288 288 287 287 287 287 287 288 287 287 288 288 289 291 291 291 291 291 288 286 286 285 285 285 285 285 285 285 285
288 288 288 288 289 289 289 289 288 288 288 288 288 289 288 286 287 287 287 287 287 287 287 287 288 289 291 291 291 291 292 290 287 286 285 285 285 285 285 285 285 284
288 288 288 288 288 288 288 288 288 288 289 289 289 288 287 287 287 287 287 287 287 287 287 287 287 288 290 291 291 291 291 291 288 286 286 285 285 285 286 285 285 285
288 288 288 288 288 288 287 288 288 289 289 289 288 288 288 288 288 287 287 287 287 287 287 286 288 289 290 290 291 291 291 291 288 287 286 285 285 285 285 285 285 286
288 287 287 287 287 287 287 288 288 288 289 289 288 288 288 288 288 287 287 287 287 287 286 286 288 289 290 290 290 291 291 289 287 286 285 285 285 285 285 285 285 285
288 288 288 287 287 287 287 287 288 288 288 288 287 287 287 287 287 287 287 287 287 287 287 287 287 288 289 290 290 291 290 288 287 286 285 285 284 285 285 285 285 285
288 288 287 287 287 287 287 287 287 287 287 287 287 287 286 286 287 287 286 286 287 287 288 287 288 288 289 290 290 290 289 287 286 285 284 284 284 284 284 285 285 286
288 288 287 287 287 287 287 287 287 287 287 286 286 286 286 286 286 286 286 286 287 287 287 287 288 288 289 289 290 290 289 287 285 284 283 283 284 284 285 285 285 286
288 288 287 287 287 287 287 287 287 286 286 286 286 285 285 285 285 285 285 285 286 286 287 287 287 287 288 289 289 290 290 287 285 283 283 283 283 284 284 284 285 285
Wind_Speed
4 4 4 3 4 3 2 1 1 1 1 1 0 0 1 0 1 2 2 2 1 3 3 3 3 4 4 3 4 3 4 3 3 2 3 4 4 4 4 3 4 4
5 4 4 4 4 4 4 3 3 3 3 2 3 2 2 3 0 0 1 2 1 0 1 1 1 1 2 2 3 3 3 3 3 1 3 3 3 3 3 3 2 2
5 5 5 5 6 5 4 3 3 3 3 5 4 3 3 4 3 2 1 0 2 1 0 1 1 0 0 0 1 1 2 1 2 1 3 2 2 3 1 2 1 1
6 6 6 6 6 6 5 4 4 4 4 5 4 4 4 3 4 4 4 4 3 3 2 2 1 1 1 0 1 1 2 2 2 1 3 3 3 3 2 3 2 0
6 6 6 6 6 5 5 5 6 5 5 6 5 4 4 4 4 4 4 4 4 4 4 4 4 3 1 2 2 2 1 2 3 2 2 3 3 3 3 3 3 2
6 6 6 7 6 6 6 7 6 6 6 5 6 4 4 5 5 5 5 5 5 5 5 5 5 4 4 4 4 4 4 4 3 4 3 3 4 3 3 3 4 4
8 7 8 7 6 6 7 7 7 6 7 7 4 6 5 6 6 6 6 6 6 6 6 6 5 5 5 5 4 5 5 5 4 5 4 4 4 4 4 4 4 4
9 7 7 7 7 7 8 8 7 7 7 5 6 7 6 7 7 6 6 6 6 7 7 6 6 6 6 6 7 6 6 5 5 6 6 5 4 5 5 5 4 5
7 7 7 7 8 8 8 9 8 8 6 7 7 7 6 7 8 7 7 7 7 7 7 7 7 7 7 7 7 8 8 7 6 7 7 7 7 7 7 6 6 6
7 7 7 8 9 9 9 10 9 8 7 7 8 7 8 8 7 8 7 8 8 8 8 8 8 8 7 8 9 9 9 9 8 8 8 8 9 8 7 8 9 8
7 7 8 9 10 9 10 10 9 9 7 9 8 9 9 8 8 7 8 8 9 10 9 9 10 9 9 9 8 8 9 9 9 9 10 10 10 10 9 9 9 10
8 7 9 10 10 10 10 10 10 9 9 9 9 11 9 9 9 8 9 10 10 10 10 10 9 9 10 10 10 9 9 9 9 9 10 10 10 10 10 9 10 11
8 9 9 9 9 10 9 8 9 10 9 10 10 10 10 9 9 10 9 10 11 10 11 11 10 10 10 10 10 10 10 10 10 10 10 9 9 10 11 11 11 11
8 8 8 9 9 9 9 9 9 9 10 10 8 9 10 11 11 11 11 10 11 10 11 10 10 10 10 10 11 11 10 11 11 11 10 10 10 10 11 11 12 11
7 6 7 8 8 8 9 9 10 10 9 9 8 10 9 11 11 10 10 11 10 11 11 10 10 11 10 10 11 12 11 11 12 11 11 11 11 11 11 11 11 11
8 7 7 7 7 9 9 8 8 8 9 8 10 10 10 10 9 10 11 11 11 11 11 10 10 9 12 18 16 12 11 11 10 10 11 11 11 11 11 11 12 11
7 8 7 8 8 8 8 8 9 8 8 9 9 9 11 10 10 11 11 11 12 12 12 11 11 11 18 18 20 22 15 10 10 10 10 11 11 11 12 11 11 11
8 8 8 9 8 9 9 9 8 8 9 10 10 10 11 9 10 12 12 11 10 11 12 12 12 15 19 18 20 21 19 13 9 9 10 10 11 12 11 10 11 10
7 8 9 9 8 8 8 7 8 8 9 9 11 11 8 8 12 11 12 12 11 12 12 12 12 15 18 19 19 20 21 17 10 10 10 11 11 12 12 11 10 9
8 8 8 8 8 8 8 8 8 10 10 9 9 7 8 10 10 12 11 11 11 12 12 12 12 14 18 18 18 19 20 17 10 12 11 11 13 12 11 11 11 11
8 8 9 8 8 8 8 9 9 9 9 9 8 9 9 10 11 11 11 11 11 12 11 11 11 16 18 18 18 18 19 16 10 10 10 12 13 13 12 11 11 11
8 8 8 8 8 8 8 9 9 9 10 9 8 8 8 8 9 9 10 11 11 11 11 12 12 16 18 18 18 18 19 11 10 11 11 12 14 14 12 11 11 12
7 8 8 8 7 8 8 9 9 9 8 6 7 8 8 9 10 9 8 9 10 10 11 12 11 14 19 18 17 18 14 9 10 10 11 13 14 12 11 11 11 12
7 7 8 8 7 8 9 8 8 7 7 6 7 8 8 8 8 8 8 8 9 11 11 11 11 12 17 17 16 17 14 10 10 10 11 12 12 10 9 10 13 19
7 7 7 8 8 8 7 8 8 8 7 6 7 7 8 7 7 8 8 7 8 10 11 13 12 12 15 16 16 16 14 9 9 8 10 11 10 10 10 10 12 13
6 7 7 7 9 8 7 8 7 6 7 7 7 7 8 7 8 8 9 8 8 9 11 12 12 11 11 17 15 15 16 10 7 8 11 12 10 10 10 10 11 11
Wind_Direction
269 250 238 234 240 229 213 201 222 201 196 200 305 303 115 343 20 348 338 339 349 1 349 6 19 17 6 27 13 65 80 87 74 76 91 100 91 88 74 68 65 92
250 259 266 266 266 261 239 200 213 214 239 214 197 173 191 144 208 289 319 321 327 305 324 340 345 21 16 25 351 57 75 83 76 69 80 75 105 97 88 80 61 82
230 235 246 251 251 256 255 229 208 223 228 243 223 188 195 162 182 184 208 218 291 295 286 314 308 244 244 311 317 104 121 138 131 145 108 113 110 117 143 120 89 105
235 224 226 234 236 246 255 256 245 227 233 247 233 226 221 197 189 202 200 197 214 242 226 259 265 288 258 262 281 183 183 163 162 169 159 161 170 161 175 146 153 97
234 238 232 231 231 230 230 235 240 233 225 227 233 220 207 204 211 225 219 212 206 225 211 212 216 232 228 273 275 288 224 198 189 211 192 174 193 159 199 157 156 163
236 232 233 231 232 227 230 230 231 227 231 236 230 219 210 206 209 217 218 220 218 218 219 211 204 213 202 216 226 238 228 232 216 210 232 208 208 190 198 194 177 194
229 228 233 230 234 230 234 238 236 230 229 228 221 228 213 214 213 212 214 214 215 216 218 216 209 211 204 204 211 221 228 219 208 200 216 237 209 213 205 210 209 202
227 224 227 227 228 231 233 238 239 234 233 227 225 230 211 219 217 216 215 215 214 218 216 216 213 211 208 199 206 213 227 215 198 194 207 225 221 215 211 209 213 210
224 223 221 223 224 230 232 234 235 237 227 225 230 232 225 220 220 217 216 216 218 220 217 218 216 212 207 203 207 209 216 218 207 197 201 211 220 220 210 203 209 216
228 227 220 220 221 226 229 233 232 233 225 225 230 229 229 229 220 220 217 216 221 222 220 220 218 215 212 207 209 209 212 213 210 207 206 210 213 218 213 203 207 213
239 232 229 226 225 225 228 231 231 230 225 224 226 230 229 228 230 221 220 219 221 222 222 221 220 215 214 216 216 214 212 213 212 209 211 213 214 215 213 208 208 211
243 239 236 233 232 231 230 229 228 226 225 226 220 228 230 225 228 226 220 226 226 227 224 224 223 217 216 218 220 219 218 218 218 218 216 216 216 216 215 213 214 214
242 239 236 238 238 237 237 233 229 226 223 226 223 223 225 227 227 229 227 225 230 228 230 227 225 222 220 220 222 221 221 221 222 223 225 223 222 219 218 219 219 220
250 249 247 244 243 240 238 236 234 230 226 227 223 222 224 225 226 225 229 225 229 228 231 231 229 228 224 222 224 224 223 225 224 225 226 228 230 228 225 224 224 224
259 258 255 254 250 248 242 237 234 232 230 227 222 225 225 227 228 226 229 231 230 229 231 229 230 230 226 221 223 227 224 226 226 226 226 229 232 234 233 231 231 230
259 259 258 256 255 251 248 244 240 236 231 230 229 228 228 227 227 229 228 230 230 230 229 228 230 232 227 221 221 224 225 226 226 226 227 230 233 236 237 234 233 233
261 260 257 257 253 254 253 249 245 241 238 237 236 233 233 231 227 230 229 230 229 228 228 228 229 232 229 224 225 226 226 226 222 226 228 230 234 234 237 235 235 234
259 259 259 257 255 253 252 251 250 247 242 238 238 239 236 229 230 232 232 232 233 233 233 232 233 233 232 227 227 229 227 226 223 226 228 230 233 235 236 236 236 235
263 261 260 262 260 260 262 263 258 254 252 248 244 242 243 234 236 235 235 235 233 236 237 236 238 237 236 231 228 230 230 226 226 227 230 233 235 235 235 233 234 234
263 264 264 262 263 262 260 259 256 253 251 250 252 249 241 242 242 241 240 239 237 237 241 241 241 246 243 240 234 232 231 227 225 230 232 236 239 238 236 232 229 231
264 263 263 264 262 261 260 257 256 259 257 255 251 246 245 242 242 244 242 241 240 239 242 243 242 244 246 243 240 236 234 229 225 230 232 238 241 241 239 235 232 232
260 262 262 263 264 262 259 260 259 257 262 260 254 251 249 249 251 243 246 243 241 242 244 247 245 243 245 242 238 238 235 228 224 226 228 234 240 241 239 238 238 237
261 262 265 264 262 262 260 260 262 264 262 259 261 253 251 248 250 248 246 248 249 244 244 249 249 244 246 243 236 235 230 222 224 226 229 234 239 241 239 239 239 237
261 260 265 264 262 259 260 261 259 263 264 259 257 263 258 251 253 257 249 245 248 250 244 253 253 249 249 248 236 232 222 219 219 223 231 236 243 243 241 241 240 238
265 264 264 266 266 263 261 266 262 260 263 264 260 260 259 259 256 256 256 246 243 250 253 250 254 251 249 251 238 232 224 217 215 217 232 237 240 245 241 241 245 244
269 270 268 267 271 272 266 262 265 271 269 266 265 255 262 260 255 253 256 252 243 246 248 245 250 248 243 249 242 234 224 213 203 211 228 234 232 236 243 245 244 245